Humidity-temperature Sensor

Selected Measurement Type: Air Temperature

 
Air Temperature [°C]     6 entries per hour
Showing data from 10/15/2015 (00:00:00 Z) to 10/8/2015 (00:01:00 Z)
Previous Next [ Day | 3-Days | 7-Days ]
First Last
Prev [ Day | 3-Days | 7-Days ] Next
First Last

Start Time:     :
End Time:     :     
Time (in GMT) :00 :50 :40 :30 :20 :10
Previous Next [ Day | 3-Days | 7-Days ]
First Last
Prev [ Day | 3-Days | 7-Days ] Next
First Last


123 => good data
MM => data is determined as missing
-- => data not received/configured
Back to Top Back to Top
10/15/2015 00:00 to 23:10 28.80 28.76 28.72 28.82 28.85 28.73
10/14/2015 23:00 to 22:10 28.78 28.70 28.83 28.82 28.76 28.74
10/14/2015 22:00 to 21:10 28.70 28.86 28.73 28.62 28.67 28.85
10/14/2015 21:00 to 20:10 28.65 28.76 28.72 28.85 28.74 28.74
10/14/2015 20:00 to 19:10 28.65 28.75 28.68 28.68 28.75 28.71
10/14/2015 19:00 to 18:10 28.57 28.76 28.68 28.65 28.55 28.62
10/14/2015 18:00 to 17:10 28.65 28.64 28.67 28.54 28.65 28.65
10/14/2015 17:00 to 16:10 28.52 28.58 28.42 28.33 28.54 28.40
10/14/2015 16:00 to 15:10 28.37 28.32 28.24 28.18 28.21 28.22
10/14/2015 15:00 to 14:10 28.24 28.30 28.19 28.22 28.22 28.28
10/14/2015 14:00 to 13:10 28.17 28.13 28.22 28.17 28.21 28.28
10/14/2015 13:00 to 12:10 28.17 28.07 28.19 28.18 28.18 28.10
10/14/2015 12:00 to 11:10 28.12 28.07 28.17 28.23 28.24 28.11
10/14/2015 11:00 to 10:10 28.27 28.21 28.25 28.38 28.27 28.25
10/14/2015 10:00 to 9:10 28.31 28.25 28.25 28.26 28.44 28.42
10/14/2015 09:00 to 8:10 28.47 28.48 28.49 28.41 28.45 28.43
10/14/2015 08:00 to 7:10 28.45 28.36 28.49 28.43 28.52 28.48
10/14/2015 07:00 to 6:10 28.47 28.61 28.63 28.53 28.46 28.52
10/14/2015 06:00 to 5:10 28.37 28.61 28.61 28.58 28.69 28.56
10/14/2015 05:00 to 4:10 28.46 28.52 28.52 28.46 28.62 28.55
10/14/2015 04:00 to 3:10 28.46 28.64 28.46 28.53 28.48 28.44
10/14/2015 03:00 to 2:10 28.55 28.57 28.59 28.47 28.49 28.63
10/14/2015 02:00 to 1:10 28.74 28.61 28.81 28.84 28.86 28.77
10/14/2015 01:00 to 0:10 29.01 28.80 28.83 28.79 28.61 28.79
10/14/2015 00:00 to 23:10 28.84 28.80 28.60 28.66 28.52 28.47
10/13/2015 23:00 to 22:10 28.60 28.58 28.54 28.53 28.65 28.58
10/13/2015 22:00 to 21:10 28.49 28.52 28.50 28.55 28.48 28.55
10/13/2015 21:00 to 20:10 28.54 28.62 28.57 28.55 28.61 28.47
10/13/2015 20:00 to 19:10 28.52 28.61 28.58 28.59 28.56 28.58
10/13/2015 19:00 to 18:10 28.50 28.55 28.55 28.64 28.66 28.72
10/13/2015 18:00 to 17:10 28.52 28.56 28.70 28.63 28.65 28.67
10/13/2015 17:00 to 16:10 -- -- -- -- -- --
10/13/2015 16:00 to 15:10 28.47 28.44 28.42 28.44 28.31 28.27
10/13/2015 15:00 to 14:10 28.32 28.33 28.30 28.25 28.27 28.23
10/13/2015 14:00 to 13:10 28.08 27.47 27.75 28.27 28.15 28.15
10/13/2015 13:00 to 12:10 28.30 28.43 28.46 28.44 28.30 28.31
10/13/2015 12:00 to 11:10 28.15 27.14 27.11 27.03 26.85 26.92
10/13/2015 11:00 to 10:10 26.91 26.97 27.83 27.28 27.61 27.27
10/13/2015 10:00 to 9:10 27.27 28.34 28.27 28.26 28.02 28.16
10/13/2015 09:00 to 8:10 28.20 28.31 28.28 28.35 28.39 28.40
10/13/2015 08:00 to 7:10 28.38 28.38 28.39 28.36 28.31 28.42
10/13/2015 07:00 to 6:10 28.40 28.34 28.44 28.48 28.47 28.58
10/13/2015 06:00 to 5:10 28.47 28.46 28.49 28.49 28.44 28.41
10/13/2015 05:00 to 4:10 28.42 28.38 28.31 28.38 28.33 28.15
10/13/2015 04:00 to 3:10 28.11 28.00 27.93 27.53 27.65 27.53
10/13/2015 03:00 to 2:10 27.47 27.93 27.58 27.66 27.15 26.57
10/13/2015 02:00 to 1:10 25.71 25.51 26.41 26.94 28.67 28.71
10/13/2015 01:00 to 0:10 28.62 28.65 28.79 28.60 28.47 28.66
10/13/2015 00:00 to 23:10 28.57 28.63 28.43 28.51 28.73 28.45
10/12/2015 23:00 to 22:10 28.50 28.35 28.49 28.42 28.45 28.31
10/12/2015 22:00 to 21:10 28.50 28.49 28.39 28.43 28.37 28.35
10/12/2015 21:00 to 20:10 28.37 28.38 28.49 28.42 28.48 28.55
10/12/2015 20:00 to 19:10 28.45 28.51 28.38 28.33 28.40 28.35
10/12/2015 19:00 to 18:10 28.42 28.49 28.51 28.39 28.51 28.49
10/12/2015 18:00 to 17:10 28.52 28.50 28.52 28.46 28.37 28.49
10/12/2015 17:00 to 16:10 28.54 28.55 28.49 28.54 28.43 28.28
10/12/2015 16:00 to 15:10 28.41 28.15 28.16 28.25 28.28 28.10
10/12/2015 15:00 to 14:10 28.04 28.04 27.96 27.94 28.00 27.94
10/12/2015 14:00 to 13:10 28.00 27.95 27.89 27.87 27.92 27.77
10/12/2015 13:00 to 12:10 28.01 27.81 27.79 27.91 27.83 27.88
10/12/2015 12:00 to 11:10 27.87 27.85 27.86 27.94 27.96 28.10
10/12/2015 11:00 to 10:10 27.99 27.98 27.90 27.93 27.98 27.97
10/12/2015 10:00 to 9:10 28.17 28.08 28.16 28.10 28.12 28.20
10/12/2015 09:00 to 8:10 28.04 28.17 28.16 28.27 28.17 28.29
10/12/2015 08:00 to 7:10 28.16 28.18 28.26 28.22 28.23 28.23
10/12/2015 07:00 to 6:10 28.18 28.20 28.27 28.24 28.23 28.28
10/12/2015 06:00 to 5:10 28.21 28.26 28.33 28.31 28.30 28.27
10/12/2015 05:00 to 4:10 28.37 28.39 28.36 28.35 28.34 28.32
10/12/2015 04:00 to 3:10 28.44 28.46 28.30 28.23 28.42 28.24
10/12/2015 03:00 to 2:10 28.39 28.17 28.44 28.39 28.38 28.55
10/12/2015 02:00 to 1:10 28.65 28.55 28.62 28.51 28.43 28.62
10/12/2015 01:00 to 0:10 28.39 28.44 28.44 28.57 28.42 28.48
10/12/2015 00:00 to 23:10 28.37 28.37 28.42 28.44 28.35 28.39
10/11/2015 23:00 to 22:10 28.55 28.41 28.46 28.28 28.34 28.39
10/11/2015 22:00 to 21:10 28.29 28.30 28.45 28.32 28.22 28.33
10/11/2015 21:00 to 20:10 28.21 28.24 28.33 28.33 28.28 28.29
10/11/2015 20:00 to 19:10 28.31 28.40 28.42 28.26 28.48 28.29
10/11/2015 19:00 to 18:10 28.51 28.47 28.42 28.45 28.41 28.30
10/11/2015 18:00 to 17:10 27.90 27.80 27.82 27.91 27.87 27.97
10/11/2015 17:00 to 16:10 28.00 27.85 27.83 27.59 27.95 28.21
10/11/2015 16:00 to 15:10 28.05 28.08 27.97 28.11 28.18 28.08
10/11/2015 15:00 to 14:10 28.05 28.07 28.06 27.93 27.87 27.98
10/11/2015 14:00 to 13:10 28.07 27.93 28.02 27.96 27.89 27.93
10/11/2015 13:00 to 12:10 27.91 27.98 28.07 28.11 28.00 28.20
10/11/2015 12:00 to 11:10 28.12 28.23 28.07 27.91 28.11 28.13
10/11/2015 11:00 to 10:10 28.09 28.12 28.16 28.22 28.12 28.16
10/11/2015 10:00 to 9:10 28.20 28.12 28.21 28.19 28.36 28.40
10/11/2015 09:00 to 8:10 28.32 28.24 27.59 26.12 26.11 26.74
10/11/2015 08:00 to 7:10 27.64 27.64 27.52 27.35 27.27 27.55
10/11/2015 07:00 to 6:10 27.72 27.65 27.76 27.48 27.81 28.34
10/11/2015 06:00 to 5:10 28.31 28.40 28.45 28.33 28.43 28.34
10/11/2015 05:00 to 4:10 28.37 28.44 28.36 28.37 28.34 28.37
10/11/2015 04:00 to 3:10 28.32 28.25 28.37 28.50 28.24 28.43
10/11/2015 03:00 to 2:10 28.34 28.56 28.54 28.61 28.72 28.62
10/11/2015 02:00 to 1:10 28.72 28.71 28.62 28.77 28.69 28.58
10/11/2015 01:00 to 0:10 28.68 28.58 28.49 28.60 28.50 28.73
10/11/2015 00:00 to 23:10 28.53 28.51 28.52 28.54 28.43 28.47
10/10/2015 23:00 to 22:10 28.44 28.45 28.43 28.50 28.46 28.41
10/10/2015 22:00 to 21:10 28.52 28.65 28.37 28.48 28.54 28.39
10/10/2015 21:00 to 20:10 28.57 28.36 28.47 28.40 28.35 28.46
10/10/2015 20:00 to 19:10 28.40 28.31 28.42 28.33 28.20 28.31
10/10/2015 19:00 to 18:10 28.37 28.39 28.25 28.38 28.34 28.46
10/10/2015 18:00 to 17:10 28.47 28.46 28.45 28.30 28.48 28.58
10/10/2015 17:00 to 16:10 28.50 28.58 28.65 28.38 28.64 28.49
10/10/2015 16:00 to 15:10 28.61 28.56 28.43 28.26 28.19 27.33
10/10/2015 15:00 to 14:10 26.84 26.71 26.48 26.44 26.56 26.64
10/10/2015 14:00 to 13:10 26.87 26.67 26.82 26.36 26.11 26.28
10/10/2015 13:00 to 12:10 26.72 26.09 25.88 27.24 27.25 27.42
10/10/2015 12:00 to 11:10 27.19 27.48 27.53 27.64 27.54 27.52
10/10/2015 11:00 to 10:10 27.73 27.59 27.65 27.16 27.04 27.68
10/10/2015 10:00 to 9:10 27.55 27.17 27.19 27.78 27.72 27.80
10/10/2015 09:00 to 8:10 27.44 27.29 27.20 27.25 27.28 27.09
10/10/2015 08:00 to 7:10 27.37 27.23 26.99 28.39 28.20 28.27
10/10/2015 07:00 to 6:10 28.23 28.46 28.28 28.20 28.18 28.25
10/10/2015 06:00 to 5:10 28.29 28.21 28.20 28.47 28.53 28.48
10/10/2015 05:00 to 4:10 28.47 28.57 28.44 28.57 28.43 28.34
10/10/2015 04:00 to 3:10 28.26 28.47 28.32 28.09 28.14 28.19
10/10/2015 03:00 to 2:10 28.17 28.20 28.33 28.17 28.05 27.87
10/10/2015 02:00 to 1:10 27.72 28.16 28.11 27.93 28.07 27.79
10/10/2015 01:00 to 0:10 27.77 27.83 27.86 27.52 27.35 26.99
10/10/2015 00:00 to 23:10 26.72 27.78 28.17 28.17 28.32 28.42
10/9/2015 23:00 to 22:10 28.32 28.51 28.18 28.35 28.58 28.24
10/9/2015 22:00 to 21:10 28.21 28.46 28.19 28.25 28.34 28.17
10/9/2015 21:00 to 20:10 28.31 28.27 28.35 28.44 28.31 28.31
10/9/2015 20:00 to 19:10 28.40 28.50 28.45 28.51 28.34 28.32
10/9/2015 19:00 to 18:10 28.48 28.36 28.24 28.21 28.45 28.31
10/9/2015 18:00 to 17:10 28.47 28.32 28.37 28.53 28.44 28.43
10/9/2015 17:00 to 16:10 28.43 28.42 28.41 28.45 28.36 28.32
10/9/2015 16:00 to 15:10 28.23 28.17 28.00 27.91 28.03 28.11
10/9/2015 15:00 to 14:10 28.05 28.13 28.04 27.98 27.86 27.97
10/9/2015 14:00 to 13:10 27.93 27.90 27.95 28.01 27.92 27.88
10/9/2015 13:00 to 12:10 27.83 28.11 27.95 28.01 27.99 28.00
10/9/2015 12:00 to 11:10 27.97 27.89 27.93 27.92 28.02 28.05
10/9/2015 11:00 to 10:10 27.96 27.98 27.87 28.05 28.03 27.99
10/9/2015 10:00 to 9:10 28.19 28.08 28.07 28.09 28.14 28.13
10/9/2015 09:00 to 8:10 27.92 28.14 28.19 28.16 28.19 28.25
10/9/2015 08:00 to 7:10 28.12 28.09 28.11 28.20 28.18 28.23
10/9/2015 07:00 to 6:10 28.12 28.28 28.25 28.21 28.16 28.21
10/9/2015 06:00 to 5:10 28.27 28.28 28.28 28.25 28.19 28.14
10/9/2015 05:00 to 4:10 28.20 28.31 28.25 28.26 28.25 28.35
10/9/2015 04:00 to 3:10 28.25 28.26 28.28 28.31 28.28 28.32
10/9/2015 03:00 to 2:10 28.29 28.22 28.41 28.68 28.68 28.50
10/9/2015 02:00 to 1:10 28.28 28.49 28.38 28.34 28.45 28.27
10/9/2015 01:00 to 0:10 28.51 28.54 28.30 28.27 28.19 28.24
10/9/2015 00:00 to 23:10 28.19 28.22 28.24 28.11 28.26 28.22
10/8/2015 23:00 to 22:10 28.18 28.30 28.39 28.17 28.32 28.24
10/8/2015 22:00 to 21:10 28.23 28.30 28.23 28.27 28.38 28.40
10/8/2015 21:00 to 20:10 28.39 28.30 28.33 28.27 28.36 28.26
10/8/2015 20:00 to 19:10 28.33 28.53 28.37 28.43 28.52 28.43
10/8/2015 19:00 to 18:10 28.53 28.68 28.35 28.38 28.36 28.41
10/8/2015 18:00 to 17:10 28.41 28.37 28.47 28.11 28.36 28.09
10/8/2015 17:00 to 16:10 28.26 28.20 28.17 28.18 28.09 28.10
10/8/2015 16:00 to 15:10 28.16 27.97 28.23 28.07 28.01 27.84
10/8/2015 15:00 to 14:10 28.06 28.06 27.86 27.88 27.83 27.90
10/8/2015 14:00 to 13:10 28.18 27.97 27.99 28.06 28.04 28.06
10/8/2015 13:00 to 12:10 27.91 28.02 27.91 27.91 28.04 27.95
10/8/2015 12:00 to 11:10 28.00 27.93 28.05 27.91 27.88 27.97
10/8/2015 11:00 to 10:10 27.96 28.01 28.03 27.94 27.94 28.06
10/8/2015 10:00 to 9:10 27.97 28.12 28.12 27.98 28.17 27.95
10/8/2015 09:00 to 8:10 28.29 28.14 28.12 28.17 28.35 28.25
10/8/2015 08:00 to 7:10 28.13 28.14 28.26 28.34 28.31 28.26
10/8/2015 07:00 to 6:10 28.21 28.33 28.39 28.31 28.28 28.28
10/8/2015 06:00 to 5:10 28.36 28.49 28.51 28.26 28.44 28.45
10/8/2015 05:00 to 4:10 28.48 28.33 28.30 28.21 28.29 28.36
10/8/2015 04:00 to 3:10 28.35 28.51 28.34 28.15 28.13 28.16
10/8/2015 03:00 to 2:10 28.02 27.99 28.00 27.68 27.85 27.89
10/8/2015 02:00 to 1:10 27.89 27.99 27.85 27.65 27.52 27.62
10/8/2015 01:00 to 0:10 27.71 27.78 27.51 27.52 27.80 27.62